STARLINK-1642, 46154

Orbit data source: Space-Track

STARLINK-1642, 46154 is a payload satellite owned by SpaceX/Seattle (US) in LEO that was launched on Tue, 18 Aug 2020 UTC via an FALCON 9 launch vehicle from the Air Force Eastern Test Range (AFETR). Payloads include a variety of satellites, spacecraft, and rockets equipped with specific instruments for various scientific and technological missions. These include communications satellites like Starlink; space stations such as the ISS; scientific satellites like the Hubble; Earth observation satellites from companies like Planet Labs, Umbra, and HawkEye 360; GPS; miniature CubeSats for education and research; and military/defense satellites.

Loading next visibility...
STARLINK-1642 details
Identifier
46154, 2020-057AP
Orbit
LEO
Last TLE update12 hours ago
Origin
Flag of USSpaceX/Seattle (US)
ManufacturerSpaceX/Seattle
MissionOperational Commercial Communications
Bus & MotorSTARLINK, Unknown motor
Mass260 kg wet, ~248 kg dry
Launch date (UTC)
2020-08-18 (4 years ago)
Launch vehicle
FALCON 9
Launch site
Air Force Eastern Test Range (AFETR)
Object type
Payload
Rocket body
Debris
Shape & HBRBox + 1 Pan, 8.86 m
Radar Cross Section13.562 m², Large (>1 m²)

Expand to show TLE details & history

TLE from 12 hours ago
0 STARLINK-1642
1 46154U 20057AP  24361.03763319  .00016455  00000-0  11214-2 0  9994
2 46154  53.0537 115.8018 0001520  87.3884 272.7279 15.06386983240095
Epoch: 2024-12-26T00:54Z
Definitive object data (Epoch: 2024-12-26T00:54:11.507Z)
Latitude-0.00002°
Longitude7.23106°
Altitude548.081 km
Speed7.589 km/s
True Right ascension07h 43m 12s
True Declination0° 00' 00"
Sunlit
Object was in full shadow at TLE epoch
Visualization TLE readout
Latitude-46.55017°
Longitude-122.91036°
Altitude564.019 km
Speed7.579 km/s
Apparent Right ascension23h 46m 37s
Apparent Declination-43° 42' 29"
Sunlit
Object is in daylight
Visualization observer readout
Local Sidereal Time12:29:33
Azimuth118.88° SE
Elevation-81.157°
Doppler factor1
Orbital elements
Apogee altitude548.575 km
Perigee altitude546.47 km
Semi-major axis6,925.659 km
Eccentricity0.000152
Inclination53.0537°
RAAN115.8018°
Arg. of periapsis87.3884°
True anomaly272.7105°
Mean anomaly272.7279°
Eccentric anomaly272.7192°
Mean motion3.76575 °/min
BSTAR0.0011214
Orbital period95.6 mins
Loading maneuver chart data...
Loading historical data...
Loading historical data...
Loading historical data...
Loading historical data...
Loading historical data...
Loading historical data...
Loading historical data...

STARLINK-1642 Visibility forecast

Observer location: undefined°, undefined

Span
Click to sort rows by Start time (UTC) header in descending order
Start Az.
Max El. time (UTC)
Max El. Az.
Max El.
End time (UTC)
End Az.
4 mins2024-12-26 15:40:55.835Z347.692° N2024-12-26 15:42:55.835Z24.638° NE18.209°2024-12-26 15:44:55.835Z58.425° ENE
6 mins2024-12-26 17:19:55.835Z314.788° NW2024-12-26 17:22:55.835Z65.616° ENE43.765°2024-12-26 17:25:55.835Z123.238° SE
7 mins2024-12-27 10:31:55.835Z234.314° WSW2024-12-27 10:34:55.835Z333.198° NNW44.57°2024-12-27 10:38:55.835Z48.489° ENE
5 mins2024-12-27 12:12:55.835Z303.571° NW2024-12-27 12:14:55.835Z339.746° N18.82°2024-12-27 12:17:55.835Z27.64° NE
|